Flag for South Africa Weather past 2 weeks in Bloemfontein, South Africa

Now
43 °F

Quite cool.


Feels Like: 40 °F
Forecast: 35 / 72 °F
Wind: 5 mph from South

Location: Bloemfontein Airport

Current Time: Sep 20, 2014 at 1:57:16 AM

Latest Report: Sep 20, 2014 at 1:00 AM


Visibility: N/A

Pressure: 30.30 "Hg

Humidity: 29%

Dew point: 12 °F

Location of BloemfonteinLocation

Historic Weather in Bloemfontein — Graph

°F

Bloemfontein temperature yesterday

Maximum temperature yesterday: 66 °F (at 4:00 PM)
Minimum temperature yesterday: 32 °F (at 6:00 AM)
Average temperature yesterday: 50 °F

Past Weeks' High & Low Weather Summary

 TemperatureHumidityPressure
High90 °F (Sep 14, 2:00 PM)63% (Sep 18, 11:00 AM)30.45 "Hg (Sep 18, 11:00 AM)
Low32 °F (Sep 19, 6:00 AM)5% (Sep 8, 2:00 PM)29.92 "Hg (Sep 18, 12:00 AM)
Average65 °F26%30.21 "Hg
* Reported Sep 4 11:00 PM — Sep 19 11:00 PM, Bloemfontein, Weather by CustomWeather, © 2014

Note: Actual official high and low records may vary slightly from our data, if they occured in-between our weather recording intervals... More about our weather records

Advertising

Bloemfontein weather history for previous 24 hours

 ConditionsComfort  
Time TempWeatherWind HumidityBarometerVisibility
11:00 PM
Sep 19
45 °FQuite cool.5 mph25%30.33 "HgN/A
10:00 PM46 °FCool.5 mph27%30.30 "HgN/A
8:00 PM54 °FClear.6 mph14%30.30 "Hg10 mi
7:00 PM57 °FClear.8 mph15%30.24 "Hg10 mi
6:00 PM63 °FPassing clouds.8 mph14%30.21 "HgN/A
5:00 PM64 °FSunny.8 mph8%30.24 "Hg10 mi
4:00 PM66 °FPassing clouds.10 mph9%30.21 "HgN/A
3:00 PM64 °FPassing clouds.9 mph9%30.21 "HgN/A
2:00 PM64 °FSunny.8 mph8%30.24 "Hg10 mi
1:00 PM61 °FPassing clouds.12 mph11%30.21 "HgN/A
12:00 PM59 °FPassing clouds.8 mph11%30.24 "HgN/A
11:00 AM57 °FSunny.8 mph18%30.27 "Hg10 mi
10:00 AM52 °FPassing clouds.7 mph30%30.27 "HgN/A
9:00 AM50 °FPassing clouds.9 mph32%30.27 "HgN/A
8:00 AM46 °FSunny.5 mph40%30.33 "Hg10 mi
7:48 AM45 °FSunny.6 mph46%30.27 "Hg10 mi
7:00 AM36 °FPassing clouds.3 mph60%30.24 "HgN/A
6:00 AM32 °FSunny.3 mph60%30.24 "Hg10 mi
5:00 AM34 °FClear.No wind60%30.24 "Hg10 mi
4:00 AM34 °FChilly.1 mph60%30.18 "HgN/A
3:00 AM37 °FChilly.2 mph52%30.18 "HgN/A
2:00 AM39 °FChilly.2 mph52%30.21 "HgN/A
1:00 AM41 °FQuite cool.2 mph49%30.18 "HgN/A
Weather by CustomWeather, © 2014

See weather overviewHow to use our weather pages